Temperature
34 34 33 34 34 34 33 33 33 33 34 34 33 32 32 32 31 31 30 29 28 27 26 25 24 23 22 21 21 20 20 20 20 19 19 19 19 19 19 19 19 18 18 18
34 33 34 35 35 34 34 33 32 33 34 34 32 32 33 33 32 32 31 30 29 27 26 25 25 24 23 22 21 20 20 20 20 20 19 19 19 19 19 19 19 18 18 18
33 34 35 35 35 34 34 33 33 33 34 34 32 31 31 32 32 32 31 30 29 28 27 25 25 24 23 22 21 21 20 20 20 20 19 19 19 19 19 19 19 19 18 18
34 35 35 35 35 34 33 35 34 34 33 32 32 29 29 30 31 31 31 30 30 29 27 26 25 24 23 22 21 21 21 20 20 20 20 19 19 19 19 19 19 19 19 19
34 35 34 34 35 35 34 35 35 34 34 32 31 30 29 30 30 31 31 31 30 29 28 27 26 25 24 23 22 21 21 20 20 20 20 20 20 19 19 19 19 19 19 19
34 36 35 35 36 36 35 35 34 34 33 31 32 31 29 30 30 32 32 31 31 30 29 27 26 25 24 23 22 21 21 21 20 20 20 20 20 19 19 19 19 19 19 19
33 34 35 36 35 35 35 33 31 30 30 30 31 32 31 32 32 33 32 32 31 30 29 27 26 25 24 24 23 22 21 21 21 20 20 20 20 20 19 19 19 19 19 19
32 32 34 35 34 33 34 33 31 29 29 30 31 31 33 34 34 33 32 32 31 30 29 27 26 25 24 24 23 22 22 21 21 21 20 20 20 20 20 20 19 19 19 19
32 32 35 35 35 34 33 33 34 33 31 30 30 31 33 33 33 33 33 32 31 30 29 27 26 25 25 24 23 22 22 22 21 21 21 20 20 20 20 20 20 20 19 19
33 32 34 35 34 34 34 34 34 32 30 29 30 30 31 31 32 32 32 32 31 30 29 28 27 25 25 24 23 22 22 22 21 21 21 21 21 20 20 20 20 20 19 19
33 32 32 33 32 32 33 33 33 33 32 30 29 29 31 32 32 32 32 31 31 30 29 28 27 26 25 24 23 23 22 22 21 21 21 21 21 20 20 20 20 20 20 19
32 31 31 32 34 34 33 33 33 31 31 31 31 29 32 33 33 32 31 31 31 30 29 28 27 26 25 24 24 23 22 22 21 21 21 21 21 20 20 20 20 20 20 19
31 30 29 30 31 33 32 33 33 33 32 31 31 30 32 32 32 32 31 30 30 29 28 27 27 26 25 25 24 23 22 22 21 21 21 21 20 20 20 20 20 19 19 19
30 30 30 30 31 32 31 32 33 33 31 31 31 30 30 31 31 31 30 30 29 28 27 27 26 25 25 24 24 23 23 22 22 21 21 21 21 20 20 20 20 19 19 19
30 29 30 31 32 32 32 32 32 32 32 32 32 31 30 30 31 30 29 29 28 27 27 26 25 25 24 24 23 23 22 22 22 22 21 21 21 20 20 20 19 19 19 19
29 28 29 29 31 32 32 32 32 32 32 32 32 31 31 31 30 29 29 28 28 27 26 25 25 24 24 23 23 23 22 22 22 21 21 21 20 20 20 19 19 19 19 19
28 27 27 28 30 30 30 31 32 32 32 32 31 31 31 30 29 28 28 27 27 26 26 25 24 24 23 23 23 22 22 22 21 21 21 20 20 20 19 19 19 19 19 19
26 26 26 27 28 27 30 32 33 32 32 32 31 31 31 30 29 28 27 27 26 25 25 24 24 23 23 22 22 22 22 21 21 21 20 20 20 19 19 19 19 19 18 18
27 25 26 27 27 28 30 31 32 31 30 31 31 30 30 29 29 27 26 26 25 24 24 23 23 23 23 22 22 22 21 21 21 20 20 20 20 19 19 19 19 19 18 18
27 26 25 26 26 26 29 31 32 31 29 30 30 29 29 29 28 27 25 25 24 24 23 23 23 23 22 22 21 21 21 20 20 20 20 20 19 19 19 19 19 19 18 18
25 25 25 25 25 27 29 30 30 28 27 28 28 28 28 27 26 25 24 24 23 23 23 22 22 21 21 21 21 21 20 20 20 20 19 19 19 19 19 18 18 18 18 18
25 25 24 25 25 25 28 29 27 26 27 27 26 26 26 25 24 23 23 22 22 22 22 21 21 20 20 20 20 20 20 19 19 19 19 19 18 18 18 18 18 18 17 17
25 25 26 25 25 25 26 26 25 25 25 25 25 25 24 24 23 22 22 21 21 21 21 21 20 20 20 19 19 19 19 19 19 19 18 18 18 18 18 18 17 17 17 17
25 25 25 24 24 25 24 24 24 24 24 24 24 23 23 23 22 21 21 21 20 20 20 20 20 19 19 19 19 18 18 18 18 18 18 17 17 17 17 17 17 17 17 17
23 24 23 23 23 23 23 23 23 23 23 23 23 22 22 22 21 21 20 20 19 19 19 19 19 18 18 18 18 18 18 18 17 17 17 17 16 17 17 17 17 17 17 17
21 22 22 22 22 22 22 22 22 22 22 22 22 22 21 21 20 20 19 19 19 19 18 18 18 18 17 17 17 17 17 17 17 16 16 16 16 16 16 16 16 16 16 16
Wind_Speed
13 13 11 10 9 7 5 3 3 4 5 4 6 10 13 13 13 13 13 14 14 13 13 13 12 12 12 11 9 8 7 6 4 3 3 3 3 3 2 3 4 3 2 2
15 15 14 11 9 8 7 4 4 2 4 3 4 5 8 13 13 13 13 14 14 14 14 13 12 11 12 11 10 9 8 7 5 4 3 2 2 3 3 2 3 3 2 1
18 13 12 13 12 9 9 7 7 5 4 5 4 2 3 6 7 10 12 12 14 15 16 14 13 12 12 12 11 9 9 8 7 6 4 3 3 1 2 3 3 2 2 2
17 15 12 14 13 10 10 8 7 7 6 4 3 2 3 5 6 9 10 12 14 14 16 16 14 13 13 12 11 9 9 8 7 6 5 5 4 3 3 3 3 3 2 2
17 16 15 15 14 11 10 8 8 10 8 6 5 3 3 5 6 10 11 13 14 14 15 16 15 13 12 13 12 10 9 8 7 6 5 3 3 3 3 4 4 3 2 2
18 14 15 14 13 12 10 10 10 11 9 8 7 5 5 7 8 10 11 11 13 14 14 14 14 14 12 12 12 12 10 8 7 6 5 4 3 2 3 4 4 3 3 2
18 18 16 14 14 13 12 11 8 7 7 7 7 5 5 8 8 9 11 12 12 14 14 13 13 14 13 13 12 13 12 10 8 8 6 5 4 3 3 3 3 3 3 3
17 17 17 14 14 11 13 14 11 8 7 6 5 4 5 9 9 10 10 12 12 13 14 13 12 12 13 13 12 12 13 11 10 8 7 5 5 5 4 4 3 2 2 3
14 14 14 15 13 13 14 15 14 11 10 6 4 3 3 7 8 9 10 10 11 12 14 15 14 13 13 13 12 12 12 11 10 9 7 6 6 4 3 4 3 2 2 3
14 11 13 12 11 14 16 15 11 9 6 7 5 4 4 7 7 9 10 11 11 12 13 14 14 14 13 12 12 12 11 10 9 9 9 8 6 5 4 3 3 2 2 2
16 12 13 13 14 15 15 15 12 9 9 8 5 2 2 6 7 6 9 9 11 12 12 13 13 13 14 13 13 12 12 11 10 9 7 7 7 6 5 4 3 3 3 3
12 12 12 13 13 13 13 14 15 10 8 9 7 4 4 3 6 7 8 8 10 10 11 11 12 13 13 13 13 12 12 12 11 9 8 7 7 7 6 5 5 4 4 4
7 10 11 12 12 14 14 15 16 15 11 11 10 3 3 1 5 8 9 8 9 9 9 9 10 10 10 11 11 11 12 12 12 11 10 8 7 7 6 5 5 5 4 3
6 11 14 14 10 11 13 16 16 15 10 10 9 4 4 2 4 7 8 8 8 9 9 8 9 8 8 8 8 9 10 10 11 11 10 9 8 7 6 5 5 5 4 4
7 12 16 17 14 13 14 14 15 14 13 12 7 6 7 6 4 6 8 8 7 8 9 8 7 7 7 7 7 8 7 7 7 8 9 9 8 7 6 6 5 5 5 5
7 9 13 17 17 16 15 14 14 15 14 14 10 3 7 6 5 5 6 6 7 7 7 7 7 6 7 7 7 7 7 7 6 7 7 8 7 7 7 6 5 5 5 4
9 9 11 15 16 17 18 15 15 14 13 12 10 4 5 5 5 5 6 5 5 5 5 6 6 6 6 6 6 6 6 7 6 6 6 6 7 7 6 7 6 5 5 4
8 8 9 13 14 19 15 12 13 12 10 9 5 3 3 5 6 5 5 5 4 4 3 4 5 6 6 6 7 5 6 7 7 6 6 5 6 5 5 5 5 5 4 4
10 8 9 12 16 17 15 12 12 11 9 7 5 4 2 3 5 4 4 5 4 4 3 2 3 5 5 6 6 6 5 5 6 6 6 6 6 6 6 5 5 5 4 4
13 9 10 12 15 15 11 11 8 7 9 5 3 3 3 3 4 2 4 4 4 4 3 2 2 4 5 4 4 6 6 6 5 5 5 6 6 6 6 5 5 4 4 5
15 13 15 16 15 11 8 6 7 11 5 2 3 2 1 0 1 3 4 4 4 4 4 4 4 3 3 4 3 3 3 3 3 3 4 4 4 4 4 4 4 4 5 5
14 14 14 14 15 10 5 4 3 1 4 4 4 2 2 3 4 4 5 4 4 4 4 4 4 4 3 4 4 3 2 2 3 3 3 3 3 4 4 4 3 3 3 4
12 9 8 7 7 1 4 3 4 4 4 4 3 2 3 4 4 4 4 4 3 3 3 3 4 4 3 4 3 3 3 3 3 3 2 2 3 2 3 4 4 4 4 4
10 7 7 5 4 3 1 2 2 2 2 2 2 1 2 2 3 3 3 3 3 2 2 3 3 4 3 4 3 3 3 3 3 3 2 2 3 3 3 3 3 4 3 3
7 6 7 7 5 2 2 1 1 1 0 0 0 1 1 3 3 2 3 3 2 2 2 3 3 3 3 4 4 4 3 4 4 4 3 3 4 3 3 3 2 2 2 2
9 7 6 5 4 3 4 3 2 2 1 0 0 1 1 3 4 3 3 3 2 2 2 2 2 3 3 4 4 3 3 4 4 4 4 4 4 4 4 4 2 3 1 3
Wind_Direction
229 235 236 235 229 235 260 271 203 200 228 208 149 156 165 171 174 171 169 168 167 166 162 158 161 156 152 150 149 152 152 144 152 149 148 155 147 145 134 131 126 133 129 123
232 233 236 241 243 239 252 262 284 245 225 219 174 183 176 172 179 176 172 168 168 165 161 160 164 160 156 153 154 156 160 163 172 158 146 152 136 151 140 116 120 133 134 160
234 234 234 234 232 239 254 243 242 238 242 231 201 190 204 188 186 176 176 172 169 170 164 164 168 167 162 159 164 170 166 167 175 165 167 154 136 168 131 135 137 129 111 97
239 237 237 239 239 237 249 250 251 255 246 241 209 201 205 196 197 187 178 171 174 172 167 168 172 171 167 164 165 160 159 162 166 171 182 182 173 167 149 142 144 139 129 134
239 235 234 238 241 240 252 260 263 268 262 260 236 222 194 191 202 190 181 179 174 168 169 168 170 167 166 165 164 159 154 158 162 175 183 193 185 169 153 143 142 148 157 156
248 242 238 242 244 242 251 256 262 266 262 256 249 240 189 191 191 184 177 172 166 164 166 163 162 160 165 165 163 161 157 161 166 177 185 191 198 162 153 158 162 174 171 166
240 240 234 234 240 233 234 241 249 254 249 247 252 244 174 178 173 168 164 165 167 162 157 160 162 163 165 168 166 161 160 166 172 181 185 185 190 179 182 189 185 193 170 167
231 230 226 222 232 240 239 241 242 243 252 249 252 256 166 148 151 148 151 157 164 161 156 160 165 165 165 169 165 162 163 168 175 181 183 182 186 193 193 194 207 198 168 154
239 236 218 218 221 232 240 243 251 253 259 259 228 220 160 127 129 140 149 152 158 157 159 162 169 172 170 169 164 163 162 167 174 177 173 177 187 192 182 169 193 196 167 153
248 253 238 212 211 226 240 248 253 255 262 270 247 229 196 143 150 166 163 159 155 156 159 163 171 173 168 167 162 161 161 165 172 174 178 180 180 183 183 179 168 152 126 104
242 248 244 223 214 222 225 240 248 256 257 262 255 248 212 164 164 165 148 154 154 161 159 159 166 170 164 164 165 164 161 165 171 174 173 171 168 176 173 174 175 163 147 145
233 244 248 240 227 226 233 235 240 243 252 266 265 229 227 169 154 143 138 151 150 149 151 155 161 161 164 168 170 168 167 171 175 173 169 175 170 168 176 179 175 166 163 166
247 242 240 236 227 218 226 234 242 243 240 246 257 204 162 148 136 135 136 147 141 139 138 144 149 155 161 165 167 170 173 175 176 172 171 173 176 176 176 171 171 167 169 174
259 245 246 242 236 220 223 231 239 245 248 246 241 179 164 119 115 126 133 135 136 137 135 142 145 147 151 154 155 162 173 176 176 171 172 172 178 177 175 174 173 170 173 177
251 245 250 258 257 248 234 233 233 240 250 257 249 195 161 147 155 141 135 135 135 137 141 141 144 147 152 155 157 164 170 171 169 165 170 173 174 173 173 175 176 178 184 188
244 261 258 256 256 253 245 236 235 238 244 249 252 209 140 135 121 119 125 134 133 138 149 147 145 143 155 161 166 166 170 167 158 164 173 170 170 174 177 176 177 181 184 183
232 242 255 253 252 256 245 237 235 238 240 246 249 208 141 133 130 134 134 134 131 141 147 149 150 152 161 161 163 167 165 158 161 171 172 170 171 176 180 184 179 183 185 183
246 254 245 250 251 248 247 242 241 235 240 241 226 203 179 150 137 114 118 125 121 117 118 144 162 162 166 166 166 154 157 155 164 169 172 173 176 178 178 178 181 185 186 185
228 233 243 244 243 245 247 237 234 235 236 235 222 201 181 154 141 118 106 120 120 124 126 137 168 169 161 162 157 149 152 164 167 169 171 179 180 179 182 188 188 187 184 186
217 213 233 243 246 243 243 238 228 231 232 226 207 195 207 202 224 147 102 109 122 127 125 128 133 129 135 143 150 155 162 169 175 177 178 180 180 182 183 185 191 187 186 191
209 213 226 239 245 248 261 252 229 225 218 162 159 169 214 114 34 95 101 96 97 107 113 114 108 106 115 126 127 136 152 168 169 160 163 164 166 172 177 178 185 189 196 193
220 217 222 234 239 239 281 237 235 81 84 97 94 106 103 95 99 100 97 96 99 100 103 108 111 107 105 116 126 133 137 136 130 138 147 159 162 185 175 156 168 183 193 193
234 232 223 229 234 258 358 53 73 84 82 80 92 89 98 118 126 124 115 114 112 107 110 110 118 115 114 120 130 138 126 118 122 129 143 153 166 186 161 170 180 189 194 204
230 240 240 241 217 206 220 62 65 95 97 81 97 102 100 132 130 132 130 124 124 115 111 114 123 132 127 131 130 124 124 131 136 147 158 173 188 183 169 182 190 200 197 205
272 237 228 226 229 228 178 202 63 59 120 274 285 177 167 150 146 153 136 124 133 127 116 123 129 135 133 130 130 132 137 147 157 166 176 194 203 188 178 188 190 204 193 201
274 267 240 236 237 243 236 246 254 244 226 201 203 178 197 158 166 171 150 142 144 152 133 129 131 136 131 134 137 138 146 157 167 179 195 202 199 189 190 185 166 47 81 134
Height
1463 1465 1466 1462 1460 1461 1463 1467 1471 1469 1461 1462 1468 1473 1475 1479 1483 1487 1492 1497 1502 1506 1510 1514 1517 1519 1522 1523 1525 1527 1528 1529 1531 1532 1533 1534 1535 1536 1537 1537 1537 1538 1538 1539
1462 1463 1457 1454 1455 1456 1461 1469 1471 1466 1460 1463 1469 1472 1470 1473 1477 1482 1487 1493 1498 1503 1508 1512 1515 1518 1520 1522 1524 1526 1528 1529 1530 1532 1533 1535 1536 1536 1537 1537 1537 1538 1538 1538
1461 1456 1452 1453 1456 1459 1461 1466 1468 1467 1462 1461 1469 1479 1476 1474 1476 1479 1484 1488 1494 1499 1504 1509 1513 1516 1519 1521 1523 1525 1526 1528 1530 1531 1533 1535 1536 1537 1537 1538 1538 1538 1538 1539
1454 1449 1451 1453 1454 1456 1465 1455 1456 1459 1466 1473 1473 1496 1485 1477 1477 1478 1481 1485 1490 1495 1501 1506 1510 1514 1517 1519 1521 1523 1525 1527 1529 1531 1533 1534 1535 1536 1537 1537 1537 1538 1538 1538
1452 1448 1451 1454 1451 1451 1455 1449 1453 1456 1462 1471 1473 1487 1489 1477 1480 1476 1478 1481 1486 1492 1497 1502 1507 1511 1515 1518 1520 1522 1523 1526 1528 1530 1532 1533 1535 1536 1536 1537 1537 1538 1538 1538
1446 1443 1445 1446 1445 1446 1448 1452 1455 1457 1463 1485 1475 1482 1492 1478 1474 1472 1473 1478 1482 1488 1494 1500 1505 1509 1513 1516 1519 1520 1522 1524 1526 1529 1531 1532 1534 1535 1536 1537 1537 1537 1538 1538
1452 1445 1442 1443 1448 1447 1450 1464 1481 1490 1490 1492 1471 1474 1477 1464 1462 1464 1468 1474 1480 1486 1492 1498 1503 1506 1510 1514 1517 1519 1520 1523 1525 1527 1529 1531 1533 1534 1535 1536 1537 1537 1537 1537
1460 1457 1442 1442 1448 1454 1453 1458 1481 1499 1500 1488 1475 1479 1463 1453 1457 1462 1467 1473 1478 1483 1488 1495 1500 1505 1508 1512 1515 1517 1519 1521 1524 1526 1528 1530 1531 1532 1534 1535 1536 1537 1537 1537
1453 1452 1437 1438 1442 1447 1456 1455 1450 1466 1476 1486 1483 1473 1458 1453 1457 1461 1466 1472 1476 1481 1487 1493 1498 1503 1506 1510 1513 1515 1517 1520 1522 1524 1526 1528 1530 1531 1533 1534 1535 1535 1536 1536
1444 1453 1440 1437 1442 1444 1447 1448 1454 1465 1488 1497 1487 1481 1473 1462 1462 1462 1465 1470 1474 1480 1485 1490 1495 1499 1504 1507 1511 1514 1516 1518 1521 1523 1525 1526 1528 1529 1531 1532 1533 1534 1534 1535
1439 1451 1448 1442 1448 1451 1451 1453 1454 1458 1464 1485 1498 1490 1461 1458 1458 1460 1463 1468 1473 1478 1483 1487 1492 1497 1501 1505 1509 1511 1514 1516 1519 1521 1523 1525 1526 1528 1529 1530 1532 1532 1533 1534
1440 1447 1453 1446 1438 1440 1443 1448 1453 1468 1471 1467 1477 1484 1453 1453 1455 1461 1465 1469 1472 1477 1481 1485 1490 1494 1499 1503 1506 1509 1511 1514 1517 1519 1522 1524 1525 1527 1528 1529 1530 1531 1532 1533
1444 1451 1464 1461 1452 1445 1446 1445 1445 1448 1456 1467 1476 1477 1454 1455 1456 1460 1465 1470 1472 1477 1481 1485 1489 1493 1497 1501 1504 1507 1510 1513 1515 1518 1520 1522 1524 1525 1527 1528 1530 1530 1531 1532
1447 1450 1457 1463 1455 1446 1449 1447 1444 1449 1460 1463 1464 1467 1459 1458 1459 1462 1466 1469 1472 1477 1481 1485 1488 1492 1495 1498 1502 1505 1508 1511 1514 1516 1517 1519 1521 1523 1525 1526 1528 1529 1530 1531
1446 1452 1449 1445 1440 1440 1443 1444 1444 1448 1451 1458 1456 1458 1458 1459 1460 1463 1466 1469 1472 1476 1481 1484 1487 1491 1494 1497 1500 1503 1506 1509 1511 1513 1515 1517 1519 1521 1523 1524 1526 1527 1528 1530
1449 1454 1452 1450 1442 1440 1441 1441 1442 1445 1446 1448 1450 1454 1452 1456 1460 1464 1467 1471 1473 1477 1480 1484 1487 1490 1493 1495 1498 1500 1503 1506 1509 1511 1513 1515 1517 1519 1521 1522 1524 1525 1526 1527
1451 1457 1461 1458 1447 1445 1451 1441 1441 1443 1441 1445 1452 1452 1452 1456 1461 1465 1469 1472 1474 1477 1480 1483 1486 1489 1491 1494 1496 1498 1501 1504 1506 1508 1510 1512 1514 1516 1518 1520 1521 1523 1524 1525
1455 1458 1459 1459 1458 1469 1445 1431 1433 1438 1441 1441 1445 1449 1452 1456 1461 1466 1469 1472 1474 1477 1480 1483 1486 1488 1491 1493 1495 1497 1500 1503 1505 1508 1510 1511 1512 1513 1515 1517 1518 1520 1522 1523
1450 1457 1461 1460 1461 1455 1440 1432 1433 1439 1444 1441 1444 1448 1453 1457 1461 1466 1469 1472 1475 1478 1480 1483 1485 1487 1489 1491 1493 1495 1497 1500 1503 1505 1507 1509 1511 1511 1512 1514 1515 1517 1518 1520
1447 1452 1461 1459 1464 1462 1444 1431 1431 1439 1449 1444 1446 1450 1454 1457 1462 1468 1470 1472 1475 1477 1479 1482 1484 1486 1488 1490 1492 1494 1496 1498 1500 1502 1504 1505 1507 1509 1510 1511 1512 1514 1515 1516
1450 1454 1458 1459 1459 1448 1435 1432 1434 1451 1452 1447 1449 1453 1456 1459 1464 1469 1470 1472 1475 1477 1479 1481 1483 1485 1486 1488 1490 1492 1494 1496 1498 1499 1501 1503 1504 1506 1507 1508 1510 1511 1512 1513
1445 1450 1454 1454 1459 1456 1437 1435 1442 1447 1447 1449 1452 1455 1458 1462 1465 1469 1471 1473 1475 1477 1478 1480 1482 1484 1485 1487 1489 1490 1492 1494 1495 1496 1498 1499 1500 1503 1505 1506 1507 1508 1509 1510
1439 1441 1441 1447 1449 1444 1442 1443 1446 1448 1450 1452 1455 1457 1459 1463 1466 1469 1471 1473 1475 1477 1478 1480 1481 1482 1484 1485 1487 1489 1490 1492 1493 1494 1496 1497 1498 1500 1502 1503 1504 1505 1506 1507
1437 1437 1440 1444 1444 1444 1446 1447 1449 1450 1452 1454 1456 1459 1461 1463 1466 1469 1471 1472 1474 1476 1478 1479 1480 1481 1483 1484 1485 1487 1488 1490 1491 1492 1494 1495 1497 1498 1499 1501 1502 1503 1504 1505
1438 1437 1440 1444 1445 1445 1446 1450 1451 1452 1454 1455 1457 1459 1461 1463 1466 1469 1471 1472 1474 1475 1477 1478 1479 1480 1481 1482 1483 1485 1486 1488 1489 1490 1492 1493 1495 1496 1498 1499 1500 1501 1502 1503
1443 1442 1442 1444 1445 1446 1448 1450 1451 1453 1454 1455 1456 1458 1460 1463 1465 1468 1469 1471 1473 1474 1476 1477 1478 1479 1479 1481 1482 1483 1484 1486 1487 1488 1490 1492 1493 1494 1496 1497 1498 1498 1500 1500